Погода в Шпитталь-ан-дер-Драу

Австрия     46°47′58″N   13°29′34″E
темп.,
°C
ветер,
м/с
пор.,
м/с
влажн.,
%
обл.,
%
осадки,
мм/ч
давл.,
гПа
погр.,
м
28 января, пт
пт2801:00−4сз238238 0.0 102547
04:00−4ссз2386100 0.0 102462
07:00−5с238931 0.1 102737
10:000сз25720 0.0 1027542
13:00+1ссз312622 0.1 10262336
16:00−1ссз24752 0.0 102884
19:00−7ссз229053 0.0 103326
22:00−8ссз338812 0.0 103647
29 января, сб
сб2901:00−9ссз23895 0.0 103736
04:00−10ссз22925 0.0 103632
07:00−10ссз229038 0.0 103627
10:00−2ссз127089 0.0 1032148
13:00+1юз127228 0.0 1029329
16:00+1зюз11875 0.0 102720
19:00−5сз22896 0.0 103031
22:00−6сз22905 0.0 102929
30 января, вс
вс3001:00−5сз22915 0.0 102631
04:00−5зсз22915 0.0 102435
07:00−3сз22915 0.0 102335
10:00+3сз24890 0.0 1020113
13:00+6с13796 0.0 1018333
16:00+2с23850 0.0 102064
19:00−4ссз23895 0.0 102547
22:00−5ссз23905 0.0 102642
31 января, пн
пн3101:00−7ссз22875 0.0 102533
04:00−7ссз218371 0.0 102222
07:00−5сз1180100 0.0 101730
10:00−1з1263100 0.0 1012145
13:00+1ююз116595 0.0 1008393
16:00+1св128157 0.0 100734
19:00−5с238611 0.1 101036
22:00−5ссз238513 0.0 101140
1 февраля, вт
вт101:00−5ссз23855 0.0 101150
04:00−5ссз24855 0.0 101283
07:00−5ссз34818 0.0 101477
10:00−1ссз26591 0.0 10131173
13:00+1ссз37455 0.0 10121815
16:00−1с23622 0.0 1014158
19:00−6ссз23835 0.0 101862
22:00−5сз2381100 0.0 101679